Location: Unspecified
(38.9820°N, 94.4650°W)
Time: 08:07:19
(UTC-05:00)

Hubble Space Telescope - Visible Passes

Search period start: 30 July 2016 00:00
Search period end: 09 August 2016 00:00
Orbit: 539 x 543 km, 28.5° (Epoch: 29 July)

Date Brightness Start Highest point End Pass type
(mag) Time Alt. Az. Time Alt. Az. Time Alt. Az.
03 Aug 3.0 04:45:37 12° SSE 04:45:54 12° SSE 04:47:24 10° SE visible
04 Aug 2.9 04:36:23 13° SSE 04:36:23 13° SSE 04:38:06 10° SE visible
05 Aug 2.9 04:27:09 14° SSE 04:27:09 14° SSE 04:28:36 10° SE visible
06 Aug 3.0 04:17:58 14° SE 04:17:58 14° SE 04:19:00 10° SE visible
07 Aug 3.2 04:08:50 12° SE 04:08:50 12° SE 04:09:18 10° SE visible
07 Aug 2.5 05:44:20 10° SW 05:47:06 17° S 05:49:53 10° SE visible
08 Aug 2.6 05:35:11 12° SW 05:37:16 16° S 05:39:51 10° SSE visible
